TimeAKDT,TemperatureF,Dew PointF,Humidity,Sea Level PressureIn,VisibilityMPH,Wind Direction,Wind SpeedMPH,Gust SpeedMPH,PrecipitationIn,Events,Conditions,WindDirDegrees,DateUTC
12:53 AM,48.0,46.9,96,30.02,10.0,Calm,Calm,-,0.00,,Overcast,0,2013-07-04 08:53:00
1:53 AM,48.0,46.9,96,30.02,10.0,Calm,Calm,-,0.02,Rain,Light Rain,0,2013-07-04 09:53:00
2:53 AM,46.9,46.9,100,30.02,8.0,Calm,Calm,-,0.02,Rain,Light Rain,0,2013-07-04 10:53:00
3:53 AM,46.9,46.9,100,30.02,10.0,East,3.5,-,0.03,Rain,Light Rain,100,2013-07-04 11:53:00
4:53 AM,46.9,45.0,93,30.01,10.0,SE,4.6,-,0.03,Rain,Light Rain,130,2013-07-04 12:53:00
5:53 AM,46.9,46.0,97,30.01,10.0,ESE,3.5,-,0.01,,Overcast,110,2013-07-04 13:53:00
6:53 AM,46.9,46.0,97,30.01,10.0,Calm,Calm,-,0.01,Rain,Light Rain,0,2013-07-04 14:53:00
7:53 AM,48.0,46.0,93,30.02,10.0,Calm,Calm,-,0.01,Rain,Light Rain,0,2013-07-04 15:53:00
8:53 AM,48.0,46.9,96,30.03,10.0,Calm,Calm,-,0.02,Rain,Light Rain,0,2013-07-04 16:53:00
9:53 AM,48.0,46.9,96,30.04,10.0,SE,4.6,-,0.02,Rain,Light Rain,140,2013-07-04 17:53:00
10:53 AM,50.0,48.0,93,30.04,10.0,SSE,4.6,-,0.00,,Overcast,150,2013-07-04 18:53:00
11:40 AM,50.0,48.2,94,30.04,10.0,SW,5.8,-,N/A,,Overcast,220,2013-07-04 19:40:00
11:53 AM,50.0,46.0,86,30.05,10.0,SSW,6.9,-,N/A,,Overcast,210,2013-07-04 19:53:00
12:53 PM,50.0,45.0,83,30.06,10.0,SW,5.8,-,N/A,,Unknown,220,2013-07-04 20:53:00
1:53 PM,50.0,46.0,86,30.07,10.0,SW,4.6,-,N/A,,Overcast,220,2013-07-04 21:53:00
2:53 PM,51.1,44.1,77,30.07,10.0,WSW,5.8,-,N/A,,Overcast,240,2013-07-04 22:53:00
3:25 PM,51.8,44.6,76,30.07,10.0,SW,6.9,-,N/A,,Overcast,230,2013-07-04 23:25:00
3:53 PM,51.1,44.1,77,30.08,10.0,SW,4.6,-,N/A,,Overcast,220,2013-07-04 23:53:00
4:53 PM,51.1,44.1,77,30.08,10.0,SW,6.9,-,N/A,,Overcast,220,2013-07-05 00:53:00
5:53 PM,51.1,44.1,77,30.07,10.0,SW,4.6,-,N/A,,Overcast,230,2013-07-05 01:53:00
6:53 PM,50.0,44.1,80,30.08,10.0,SSW,3.5,-,N/A,,Overcast,210,2013-07-05 02:53:00
7:53 PM,51.1,44.1,77,30.07,10.0,SSW,3.5,-,N/A,,Overcast,210,2013-07-05 03:53:00
8:53 PM,51.1,44.1,77,30.07,10.0,South,3.5,-,N/A,,Overcast,180,2013-07-05 04:53:00
9:53 PM,51.1,45.0,80,30.08,10.0,Calm,Calm,-,N/A,,Overcast,0,2013-07-05 05:53:00
10:53 PM,50.0,45.0,83,30.08,10.0,Calm,Calm,-,N/A,,Overcast,0,2013-07-05 06:53:00
11:53 PM,50.0,46.0,86,30.08,10.0,Calm,Calm,-,N/A,,Overcast,0,2013-07-05 07:53:00